Regional Weather Roundup
Issued by NWS

Home | Current Version | Previous Version | Graphics & Text | Print | Product List | Glossary On
Versions: 1 2 3 4 5 6 7 8 9 10 11 12 13 14 15 16 17 18 19 20 21 22 23 24 25 26 27 28 29 30 31 32 33 34 35 36 37 38 39 40 41 42 43 44 45 46 47 48 49 50
557
ASUS44 KJAN 290410
RWRMS

MISSISSIPPI HOURLY WEATHER ROUNDUP
NATIONAL WEATHER SERVICE JACKSON MS
1100 PM CDT SAT MAR 28 2015

NOTE: "FAIR: INDICATES FEW OR NO CLOUDS BELOW 12,000 FEET WITH NO
SIGNIFICANT WEATHER AND/OR OBSTRUCTIONS TO VISIBILITY.

MSZ001>002-007>008-010>013-018>021-025>028-034>036-290500-
NORTHWEST MISSISSIPPI

CITY           SKY/WX    TMP DP  RH WIND       PRES   REMARKS
CLARKSDALE       N/A     37  34  87 NE6       30.32F WCI  33
CLEVELAND      FAIR      39  35  83 E8        30.29S WCI  34
GREENWOOD      CLEAR     40  29  64 NE7       30.30S
GREENVILLE     PTCLDY    43  32  65 E8        30.28S
OLIVE BRANCH   MOCLDY    37  32  81 CALM      30.33R
OXFORD         CLOUDY    37  28  70 CALM      30.34S
TUNICA         CLEAR     37  32  81 E5        30.33S WCI  34
$$

MSZ003>006-009-014>017-022>024-029>033-037>039-290500-
NORTHEAST MISSISSIPPI

CITY           SKY/WX    TMP DP  RH WIND       PRES   REMARKS
COLUMBUS AFB   CLOUDY    42  31  64 NW2       30.33S
CORINTH        FAIR      36  32  87 CALM      30.32R
GOLDN TRIANGLE CLOUDY    39  32  75 N5        30.32F
STARKVILLE     FAIR      34  32  93 CALM      30.33S
TUPELO         CLOUDY    41  30  65 CALM      30.33S
$$

MSZ040-058-290500-
CENTRAL MISSISSIPPI

CITY           SKY/WX    TMP DP  RH WIND       PRES   REMARKS
JACKSON INTL   CLEAR     44  33  65 E6        30.28R
JACKSON HAWKNS CLEAR     45  33  63 E9        30.28R
MERIDIAN KEY   CLEAR     41  30  65 NE5       30.30R
MERIDIAN NAS   NOT AVBL
RAYMOND        FAIR      46  41  81 E7        30.27R
VICKSBURG      LGT RAIN  49  35  58 E15       30.26R
$$

MSZ059>079-290500-
SOUTH MISSISSIPPI

CITY           SKY/WX    TMP DP  RH WIND       PRES   REMARKS
BROOKHAVEN     FAIR      48  39  71 E3        30.27R
HATTIESBURG    CLEAR     48  35  60 E6        30.30R
MCCOMB         CLEAR     53  38  56 E6        30.24R
NATCHEZ        CLEAR     55  39  54 E12       30.21R
PINE BELT      CLEAR     45  32  61 NE3       30.29R
$$

MSZ080>082-290500-
COASTAL MISSISSIPPI

CITY           SKY/WX    TMP DP  RH WIND       PRES   REMARKS
BILOXI         CLEAR     52  47  82 NE7       30.26R
PASCAGOULA     CLEAR     50  41  71 E3        30.27R
GULFPORT       CLEAR     52  46  80 CALM      30.26R
$$



USA.gov is the U.S. government's official web portal to all federal, state and local government web resources and services.